Theta_e
354 353 353 352 351 347 344 341 320 327 324 317 320 324 320 331 332 330 330 334 330 339 339 337 339 338 335 332 334 333 337 334 333 324 322 340 353 353 355 356 356 357 356 357 360 361 362 362 364 364 363 364 368 368 368 368 367 366 367 367 366 367 367 365 365 365 365 366 365 365 364 364 364 365 364 363 362 363 362 361 360 358 358 358 358 358 359 359 360 361 360 359 361 362 363 360 360
353 354 353 353 350 347 336 342 324 322 322 318 320 325 327 331 330 327 328 332 336 336 342 341 338 338 339 338 339 339 338 341 342 339 344 350 354 353 354 356 356 355 355 358 360 360 361 362 364 363 363 367 368 368 368 368 367 366 367 367 366 367 366 365 365 365 366 366 365 365 364 364 364 364 363 363 363 362 361 359 358 357 358 358 357 357 357 359 360 359 359 359 359 360 361 359 359
354 354 352 353 349 344 343 340 318 318 315 313 317 323 330 328 327 328 333 335 340 338 341 336 337 336 336 337 334 334 329 343 343 344 343 351 345 349 354 356 357 356 356 358 358 359 361 362 363 364 365 367 368 368 367 367 366 366 367 367 367 367 366 366 366 366 366 365 365 364 365 365 364 364 363 363 363 362 361 358 359 358 357 357 356 356 356 358 359 359 359 358 359 360 360 360 359
356 355 350 349 338 345 331 331 323 318 315 318 317 326 327 328 328 332 337 339 340 338 336 336 333 339 334 331 334 340 336 338 343 343 342 345 347 351 354 355 357 356 356 356 357 358 361 364 365 366 366 367 368 367 368 367 367 367 366 367 367 367 366 366 366 367 366 365 364 365 366 365 364 364 363 362 362 362 360 357 357 356 356 357 357 355 354 355 358 359 359 358 360 359 359 359 361
355 355 354 345 342 329 329 326 324 324 316 320 318 326 329 331 331 334 337 335 337 337 336 335 334 340 340 337 338 332 334 342 344 347 345 350 353 353 353 355 355 354 354 355 357 359 362 365 365 365 366 368 368 367 367 367 367 367 367 368 367 366 366 366 366 366 365 365 365 365 365 365 363 362 362 362 363 361 359 358 356 354 354 354 354 354 353 354 357 360 360 358 359 359 359 359 359
355 354 356 353 334 344 336 323 322 320 323 330 324 326 330 329 331 333 335 337 338 338 337 336 335 333 333 335 341 336 342 334 344 346 348 348 352 353 354 355 354 352 353 356 358 361 362 366 366 366 367 367 367 367 367 367 367 368 368 367 367 367 367 367 366 366 366 366 364 365 364 364 363 363 359 361 360 358 355 356 354 355 354 354 354 357 358 357 358 359 359 360 360 358 359 359 360
353 351 354 344 343 343 324 323 321 323 326 329 325 327 331 333 335 334 333 334 337 337 340 336 338 336 331 338 341 343 347 347 344 346 351 352 354 352 353 353 353 352 355 358 361 362 363 366 366 368 368 367 367 367 367 367 368 368 367 367 367 367 366 366 366 366 365 365 365 365 364 363 363 363 362 362 362 362 361 360 360 358 358 359 361 361 360 361 362 359 360 360 359 358 359 360 360
358 344 343 331 327 332 324 324 322 326 323 325 331 331 332 333 335 338 332 333 331 332 336 338 338 333 331 340 330 341 347 350 349 352 353 353 353 352 353 354 352 354 357 357 361 363 368 367 367 368 367 367 366 366 367 367 367 367 368 368 367 366 366 365 365 366 365 365 365 365 363 363 362 362 362 362 362 361 360 361 361 361 360 361 361 360 361 361 362 362 362 360 359 359 359 361 361
353 347 345 333 326 329 323 322 323 326 327 327 328 335 338 335 339 333 334 334 334 335 335 336 338 330 332 335 335 342 346 350 352 353 353 354 354 352 352 354 353 355 356 357 362 365 366 367 367 367 366 366 366 366 367 367 368 368 368 368 368 367 365 365 365 365 366 365 364 364 363 363 363 362 362 362 361 361 361 361 361 360 360 360 360 360 360 361 361 361 361 362 360 360 359 360 360
347 343 332 328 329 320 319 318 318 323 324 333 329 331 333 335 333 333 331 330 333 336 336 339 338 332 336 331 335 340 344 350 351 352 353 354 354 355 353 356 357 356 355 359 360 362 365 369 367 367 366 366 366 366 367 368 367 369 368 368 367 366 366 365 365 365 366 365 365 364 364 364 363 363 362 361 361 361 361 361 360 360 361 361 361 361 361 361 361 361 361 361 361 361 360 360 361
335 343 342 325 321 318 316 318 321 324 326 331 330 334 335 335 334 332 333 336 335 332 336 339 334 334 335 334 337 346 350 349 347 345 350 352 352 352 354 355 357 357 356 358 358 361 364 365 367 367 366 365 366 366 367 367 368 368 368 368 367 367 366 365 365 365 365 365 364 364 364 363 363 362 362 362 362 361 361 360 361 361 361 361 361 361 361 361 361 361 361 362 361 361 361 359 360
332 334 335 322 320 318 319 318 321 323 328 328 329 333 334 335 333 330 332 330 332 332 333 339 333 338 333 333 336 343 347 348 348 348 350 352 352 351 354 355 355 357 356 356 359 361 362 364 364 367 366 366 366 367 368 368 368 368 368 367 367 367 366 366 366 365 365 364 364 364 363 363 363 362 361 361 361 360 360 361 361 362 362 362 361 361 361 362 361 361 361 362 361 361 359 361 360
334 333 330 325 323 322 322 320 319 324 323 328 326 331 337 333 330 333 334 332 333 332 332 338 340 338 330 333 341 344 342 346 348 349 352 353 353 352 354 354 356 356 356 359 358 359 361 362 362 364 364 366 367 368 368 368 368 368 367 367 367 367 366 366 366 365 365 365 365 365 364 363 362 362 361 361 360 360 360 360 360 361 361 361 362 361 362 362 362 362 362 362 362 362 362 362 362
336 337 332 322 329 326 324 320 320 317 321 325 331 335 335 332 333 335 334 332 333 333 336 340 340 338 332 336 337 340 342 347 348 350 352 352 352 351 354 354 354 354 356 357 357 359 360 360 361 361 363 364 365 367 368 368 368 367 367 367 367 367 367 367 366 365 365 365 365 365 365 363 362 362 362 362 362 362 361 361 361 361 361 360 361 362 362 362 362 362 363 363 363 362 362 362 361
333 340 332 325 322 324 323 319 319 319 321 326 327 332 331 334 336 334 333 330 330 337 340 344 341 336 328 332 332 339 344 347 349 351 350 349 352 351 353 353 353 354 354 356 358 358 358 359 358 362 364 363 365 365 366 366 368 367 367 367 367 368 367 366 366 365 365 365 365 366 365 364 362 362 362 362 361 361 361 361 361 360 361 361 361 362 362 363 363 363 363 363 362 363 362 362 363
337 338 330 324 320 321 323 322 320 319 319 329 331 332 331 333 336 334 335 336 332 338 340 333 343 334 336 336 338 342 346 349 348 349 349 349 350 350 351 352 352 352 354 355 356 357 358 357 358 358 359 361 362 362 364 366 367 367 367 367 367 367 366 366 365 365 366 366 366 365 365 364 363 362 363 360 362 363 362 360 361 361 361 361 362 363 362 362 363 363 364 364 364 364 363 363 363
339 335 326 325 320 320 320 319 319 316 324 327 331 331 328 329 335 335 337 335 331 334 337 337 334 341 338 339 343 344 346 349 349 347 347 347 348 348 351 351 351 351 353 353 353 353 355 357 356 356 358 358 357 361 363 365 366 367 367 367 367 367 367 366 366 366 366 366 366 365 365 363 365 364 363 361 361 362 362 363 362 362 362 362 363 363 363 363 363 363 363 363 363 363 363 363 363
335 327 327 322 322 322 324 322 323 327 325 328 329 331 329 327 330 333 337 334 334 336 334 335 336 338 342 343 345 344 346 346 345 345 343 344 347 346 347 348 351 349 350 351 352 351 351 352 353 356 356 359 359 361 363 365 366 366 366 366 366 366 366 366 366 365 367 366 366 365 367 365 365 365 364 364 365 362 362 364 363 363 363 363 363 364 364 364 364 364 363 364 363 363 363 364 365
327 327 324 322 324 327 328 328 330 326 324 330 332 332 330 329 331 331 331 329 332 330 332 337 334 337 341 343 343 343 344 344 344 344 344 343 343 345 346 348 349 351 349 352 353 354 356 354 357 357 357 360 360 361 362 364 365 366 366 366 366 367 367 366 366 366 366 367 367 364 369 366 363 365 367 365 364 363 363 364 363 364 365 364 363 364 364 364 364 364 363 364 364 364 366 367 365
330 325 322 322 328 327 329 330 328 330 330 329 329 330 330 329 332 331 331 329 331 328 329 333 332 333 338 340 342 341 343 342 343 345 344 344 345 344 345 347 348 351 352 354 354 358 358 357 358 360 359 360 359 358 360 363 364 366 364 364 364 366 366 366 367 368 368 368 365 368 365 366 365 371 365 364 366 365 363 366 364 364 364 365 364 364 364 365 364 365 363 363 364 364 364 364 361
331 325 319 326 330 326 329 331 332 330 333 332 330 330 327 329 331 330 331 328 328 330 334 333 333 336 338 340 340 340 341 342 343 344 344 344 345 345 346 346 348 352 354 356 357 357 359 359 359 359 360 360 359 358 359 360 362 362 362 362 364 364 365 365 365 367 367 369 368 368 364 364 362 367 367 366 365 365 365 364 364 364 366 365 364 366 367 366 364 364 365 364 363 363 362 361 361
330 326 327 329 330 326 329 330 330 330 332 327 325 326 326 334 332 332 330 326 326 330 334 336 336 338 339 339 340 341 340 339 341 343 344 345 343 343 346 347 350 352 354 354 354 357 359 360 360 360 357 360 360 358 358 361 362 360 360 361 362 362 363 364 365 365 366 369 367 363 363 363 362 364 364 364 363 367 365 366 363 364 364 363 367 366 366 367 366 364 364 361 362 362 359 362 359
322 326 328 331 330 326 330 331 330 332 328 327 325 333 332 327 331 332 331 328 330 336 337 338 339 340 341 341 340 339 340 339 340 343 343 344 343 344 344 346 347 348 352 353 356 357 358 359 360 360 360 363 362 362 362 361 358 360 361 362 361 360 364 362 363 364 367 370 367 366 360 358 359 360 362 364 365 368 364 364 363 367 365 365 366 366 364 366 365 363 364 366 364 361 356 358 361
328 324 327 328 332 327 330 330 333 331 329 328 329 331 327 326 322 330 329 331 334 337 338 338 339 342 343 340 340 340 339 340 340 343 344 345 344 344 345 344 347 351 352 354 355 355 358 356 361 360 361 362 362 363 364 364 359 358 359 362 361 360 363 361 360 364 366 369 371 367 363 362 358 359 362 366 366 365 365 364 366 363 363 365 368 362 363 365 365 366 365 363 363 361 354 355 356
325 324 327 328 329 329 333 331 331 332 329 331 331 326 325 326 327 328 328 332 335 337 339 338 339 340 341 340 340 340 340 340 340 342 345 344 344 346 345 346 347 350 349 353 354 355 354 357 360 359 359 363 363 360 360 361 360 359 359 359 360 364 362 362 364 367 368 367 368 370 370 359 364 360 361 366 368 365 365 366 365 365 367 367 366 365 362 362 362 362 363 360 355 359 360 356 358
326 326 328 327 326 328 330 332 330 332 331 332 327 325 326 328 330 325 330 332 335 338 337 337 338 336 338 338 340 339 340 340 342 342 342 345 344 343 345 346 346 349 350 353 356 358 356 358 359 359 358 360 362 359 360 361 361 360 361 364 363 366 361 363 369 368 368 367 363 367 361 362 358 363 363 366 366 366 368 365 370 364 364 371 365 367 364 369 364 364 360 359 360 361 360 357 357
328 326 327 327 327 327 327 328 331 331 330 331 324 324 325 328 326 320 331 332 335 335 336 336 336 336 339 339 339 339 340 340 340 342 342 344 344 344 344 349 345 347 351 350 352 355 357 357 359 361 360 365 361 358 360 360 361 359 363 363 362 366 365 367 366 366 364 362 364 370 372 376 364 359 368 367 367 368 369 372 365 366 364 364 365 365 371 367 364 364 370 369 368 363 361 357 357
326 326 326 326 325 325 327 328 328 330 328 329 326 324 325 326 324 321 328 332 334 333 334 334 336 335 336 338 338 340 341 340 342 342 339 340 342 344 344 342 347 350 348 350 352 355 354 356 356 358 359 361 361 357 361 359 360 360 362 362 361 364 368 366 365 363 364 362 367 368 373 372 372 370 374 368 367 367 367 367 371 366 365 368 369 367 368 372 372 369 368 371 369 366 360 366 358
325 325 318 321 322 322 325 324 327 329 326 328 327 322 320 321 320 324 329 333 332 333 333 332 334 335 336 336 339 341 340 342 341 339 340 342 344 344 342 345 343 346 350 352 352 354 353 355 358 357 360 361 360 357 358 359 360 358 360 360 361 361 363 363 362 361 365 368 372 368 372 372 376 375 376 373 369 367 368 371 367 367 370 372 371 369 367 372 369 366 366 367 365 360 355 357 355
325 324 321 320 318 317 322 325 326 326 326 327 325 311 315 318 322 325 330 331 332 331 332 332 333 334 336 337 339 339 340 341 340 342 344 342 343 344 346 346 346 345 349 353 353 352 353 354 355 357 359 358 359 356 360 359 360 359 360 360 362 362 361 360 363 366 366 366 369 371 370 371 371 375 371 373 371 369 368 367 367 365 373 364 373 375 369 367 366 364 360 363 359 357 354 348 345
317 321 322 316 314 313 321 322 323 322 326 325 325 312 314 319 322 325 329 332 331 330 331 333 334 334 335 336 338 339 342 341 341 342 344 345 344 344 346 347 348 349 350 351 352 353 353 353 354 355 358 357 359 359 359 360 359 357 359 361 359 360 361 359 358 358 360 362 365 368 371 371 371 370 370 374 368 370 364 365 369 369 371 374 370 376 370 368 368 366 369 359 359 366 346 351 352
317 313 311 315 312 314 319 322 322 318 323 325 322 312 314 318 321 325 330 332 331 330 330 332 333 333 334 336 338 338 339 341 342 343 344 344 346 347 346 347 349 349 350 348 351 353 352 353 356 354 357 358 360 361 361 362 360 363 361 363 362 361 359 358 359 358 359 361 362 367 371 371 372 372 372 374 373 369 366 367 366 371 372 378 372 370 370 368 369 363 362 359 358 346 341 351 349
314 311 310 311 312 312 314 319 322 323 322 323 320 313 315 316 322 326 330 331 330 330 330 333 334 334 334 335 337 339 340 341 342 342 342 345 347 348 349 350 349 350 349 349 352 352 354 352 357 354 355 358 360 363 364 365 365 364 363 359 356 361 357 358 359 360 360 360 363 363 369 371 371 371 371 373 371 371 369 364 365 366 368 373 370 373 367 369 366 359 365 367 358 358 342 333 343
308 312 309 312 311 312 310 317 321 322 321 318 320 316 316 319 322 324 329 331 329 328 331 332 334 334 336 336 336 337 339 340 340 342 343 345 347 348 348 353 350 351 351 350 352 352 353 355 356 357 357 358 362 362 364 363 364 366 364 362 364 360 362 358 359 361 361 360 362 364 368 369 371 371 371 373 373 371 370 364 359 369 371 375 373 373 370 365 364 362 364 365 359 357 344 342 338
307 308 308 309 312 313 312 311 318 320 321 318 318 317 317 319 322 324 328 329 327 328 331 332 333 334 336 336 337 337 339 339 340 343 344 345 347 347 347 350 350 351 351 350 354 355 356 357 358 364 357 359 359 362 365 365 365 366 362 364 362 365 364 365 360 359 357 359 355 364 369 369 370 370 370 372 371 370 369 369 371 371 371 369 373 369 365 364 365 368 359 360 363 357 356 346 347
310 311 310 310 309 310 311 315 320 320 317 316 317 315 315 318 320 324 327 330 328 329 332 332 332 332 336 336 335 337 339 340 342 343 344 345 346 347 347 349 350 350 352 352 355 354 357 358 358 363 361 358 360 362 363 361 359 359 357 360 360 361 363 362 367 362 359 357 356 360 369 369 369 370 370 370 371 371 370 371 369 365 368 370 367 364 358 360 365 364 362 353 363 360 357 355 342
313 313 312 311 311 312 315 316 319 322 317 316 316 317 317 317 319 323 326 327 327 329 329 330 333 333 334 334 336 338 340 340 342 344 344 344 346 347 349 349 350 351 354 355 354 353 357 357 357 359 362 362 360 359 358 356 354 355 357 355 356 358 361 362 360 361 359 356 364 362 368 368 370 370 371 370 369 369 371 372 369 368 368 368 368 367 361 360 364 366 364 368 356 354 354 351 346
311 310 310 310 311 310 314 316 319 320 316 314 317 316 316 317 319 323 325 325 323 327 327 329 331 332 333 334 334 336 340 343 343 343 344 344 344 345 347 350 351 349 354 354 354 355 356 357 355 358 361 360 360 359 358 358 358 356 355 355 356 355 358 358 357 358 355 354 369 371 367 367 369 370 371 370 370 370 368 369 370 371 369 374 371 368 366 364 365 362 361 366 364 357 354 340 338
310 308 309 309 310 314 316 316 318 319 316 313 316 314 315 318 319 324 324 324 324 329 326 328 330 333 334 335 338 338 339 341 341 342 343 343 343 344 347 348 349 349 351 352 355 356 356 357 356 358 358 358 358 358 359 358 359 360 357 357 356 356 360 359 357 357 359 354 359 366 368 370 370 370 370 370 369 368 369 369 369 373 370 373 372 369 370 366 367 360 360 359 357 355 360 354 359
309 308 307 306 311 310 308 314 317 317 317 314 316 313 315 318 320 320 321 323 324 329 329 329 331 333 334 335 335 335 336 339 340 341 340 343 343 345 347 348 350 350 352 352 353 355 355 358 358 358 359 358 359 359 360 360 361 364 364 363 360 358 356 359 362 362 361 358 355 359 368 370 369 366 366 367 367 369 370 369 369 371 372 372 371 369 368 364 366 364 362 360 356 350 347 347 352
310 310 309 308 309 311 311 312 315 318 318 318 315 313 312 315 315 316 321 324 323 325 329 331 333 336 337 337 337 337 335 339 341 341 343 344 344 344 346 348 349 350 351 351 352 353 352 356 359 359 357 358 360 361 360 361 362 362 363 363 362 362 363 358 357 356 358 360 356 358 357 367 368 366 367 367 366 369 370 371 371 372 374 373 371 370 367 365 363 362 361 364 355 354 346 343 346
307 310 311 310 311 311 312 313 313 310 310 315 313 306 307 314 315 315 318 321 321 326 330 330 337 337 335 334 336 338 340 344 343 343 342 342 342 344 346 348 348 349 351 352 351 352 354 355 358 360 358 359 359 362 361 361 360 359 357 356 354 353 356 355 353 352 353 353 350 354 359 363 366 367 368 367 364 368 370 371 372 370 372 374 372 371 368 368 365 363 362 361 357 354 351 351 347
306 307 312 311 311 311 311 311 310 306 305 312 316 306 304 312 313 316 318 318 317 323 333 332 334 334 336 336 338 338 337 340 343 343 343 342 344 344 345 348 348 348 351 352 352 353 356 356 359 360 358 358 360 363 361 360 359 359 358 356 355 353 354 357 360 357 357 358 357 357 361 364 367 365 364 366 366 368 371 371 372 371 371 372 373 374 369 366 362 362 358 361 359 363 358 359 345
305 313 312 311 310 309 310 310 309 308 313 314 314 311 305 306 311 316 317 317 318 321 325 334 334 333 334 337 339 339 338 339 341 343 344 344 345 345 344 347 349 349 351 351 351 353 356 357 358 360 359 359 360 363 360 361 359 359 359 357 357 356 353 357 360 362 364 365 359 357 359 362 366 366 364 367 367 368 370 371 372 372 370 368 372 371 370 368 366 363 362 356 365 365 358 353 351
308 312 313 310 310 310 311 309 308 309 308 305 309 313 306 305 311 317 317 314 315 317 320 324 333 333 335 336 336 337 337 339 341 341 343 345 344 345 346 349 350 350 351 351 352 353 356 357 358 361 359 359 360 364 361 361 361 360 360 358 357 358 358 360 361 362 362 365 362 362 365 362 366 367 367 367 368 368 370 371 372 372 370 370 371 370 369 368 367 365 364 360 360 363 366 356 352
311 313 314 312 312 310 310 307 307 307 305 301 306 310 304 305 311 312 315 314 314 316 318 320 333 333 333 334 336 337 338 341 343 343 343 344 347 345 347 349 350 350 352 355 354 355 356 357 358 360 359 360 361 364 363 361 361 361 360 359 358 359 359 360 361 361 362 365 364 361 366 364 364 366 367 370 368 369 371 371 370 370 370 367 371 367 366 367 368 365 364 361 361 359 360 359 356
314 313 310 310 309 309 309 307 306 304 299 301 306 308 307 301 308 311 311 312 316 317 319 321 331 332 338 337 337 337 339 341 341 342 343 344 345 346 348 350 352 353 353 354 353 354 354 357 357 359 360 360 361 362 363 361 361 362 360 360 359 359 360 361 361 362 362 364 362 362 362 369 364 364 363 368 369 368 369 369 366 368 370 370 370 369 368 364 363 363 364 363 361 361 358 357 356
312 309 307 307 305 307 305 305 305 298 295 302 306 307 308 300 305 311 315 319 319 319 318 320 332 330 333 335 336 339 340 339 340 341 341 344 346 346 348 350 351 351 353 353 352 354 355 356 357 358 360 361 361 362 363 361 360 361 362 362 360 361 361 359 361 361 361 361 361 361 364 367 367 366 367 365 364 364 368 369 369 369 370 371 370 372 371 367 364 364 366 365 360 362 361 359 355
310 308 307 301 298 300 297 301 296 295 295 303 306 307 304 303 309 312 314 317 319 321 321 325 323 330 334 336 337 338 338 339 339 340 342 343 349 348 345 347 351 352 353 354 353 353 354 357 357 357 358 361 362 362 362 362 360 360 361 362 361 362 363 362 362 362 363 361 360 360 364 363 366 367 367 365 364 364 367 369 368 368 370 370 370 371 371 370 368 365 366 364 362 359 361 359 356
307 305 304 299 296 295 292 296 299 299 302 306 305 307 301 307 310 314 313 316 319 321 322 325 327 327 334 333 336 337 337 338 340 341 342 344 346 348 348 347 349 352 355 354 354 355 356 356 358 357 358 361 362 362 361 361 361 361 362 362 363 363 363 364 363 361 363 363 363 360 361 361 364 363 365 364 363 363 365 369 369 369 372 372 371 371 372 371 371 367 364 362 361 360 360 359 357
307 309 306 302 301 297 293 296 294 296 300 303 307 303 300 300 305 314 315 317 319 322 322 324 330 331 331 334 333 335 337 340 340 342 343 344 346 345 345 347 351 353 354 354 354 356 358 358 358 358 359 360 362 362 361 361 361 362 362 363 364 364 363 364 364 363 363 364 364 362 362 361 362 363 364 367 367 366 364 368 371 369 370 371 371 372 371 371 371 368 365 364 360 363 359 358 357
310 310 309 304 301 307 299 301 300 300 299 300 302 301 306 306 315 316 316 316 317 319 321 323 328 330 331 334 334 333 333 334 339 340 341 343 346 346 345 347 352 354 356 355 356 358 358 359 360 360 360 360 362 363 362 362 362 362 363 363 364 365 365 365 365 364 365 366 366 365 365 366 364 366 367 369 367 367 366 367 369 369 370 370 370 371 370 369 370 368 366 365 363 361 359 358 358
307 307 302 304 311 307 304 305 306 305 302 299 306 304 306 310 311 313 315 314 315 316 318 319 329 330 333 332 332 333 335 338 336 339 340 343 344 346 347 348 352 355 355 355 357 359 359 360 360 361 361 361 362 363 362 363 363 363 363 363 364 365 365 364 362 363 359 365 368 368 367 367 367 368 368 369 368 367 369 368 368 366 370 370 371 371 370 370 370 368 365 365 361 359 360 358 357
309 302 305 311 313 311 305 298 303 300 296 299 303 301 303 303 300 312 312 313 314 315 316 317 321 333 329 328 327 331 331 334 339 341 343 344 344 344 345 350 353 355 356 356 359 361 362 362 361 360 362 362 362 362 362 363 363 363 363 363 364 365 364 363 363 363 362 362 364 367 365 366 365 364 366 365 367 367 367 371 368 368 369 370 369 369 370 370 371 368 367 366 363 363 362 360 358
310 307 314 304 300 299 305 303 296 296 296 299 302 304 304 305 305 309 309 310 312 316 317 317 317 323 328 332 330 328 329 333 336 339 342 344 345 346 347 347 349 353 359 358 360 359 361 362 363 363 362 362 362 362 363 363 364 362 363 363 364 365 366 365 364 364 363 361 359 364 363 364 365 364 363 366 366 367 367 368 369 368 369 369 370 370 370 369 370 368 366 366 365 365 364 360 358
314 315 310 312 308 304 301 302 304 304 298 299 300 304 301 309 309 311 311 313 315 314 316 315 318 328 331 332 330 330 332 335 334 336 340 341 341 343 346 349 351 354 358 357 358 358 358 361 364 364 364 365 364 364 364 363 363 363 363 364 365 366 366 366 366 365 362 360 360 360 363 361 364 364 362 363 367 366 367 366 366 365 365 367 368 368 369 370 369 368 365 364 364 365 363 361 357
306 306 307 308 307 311 308 307 303 301 300 301 300 298 304 310 315 313 314 315 316 316 317 321 318 334 329 332 333 333 333 336 336 336 338 340 343 346 347 351 354 357 359 358 357 357 357 360 363 364 364 364 363 363 363 364 364 364 364 364 364 365 366 367 366 364 363 362 361 361 362 362 365 363 363 361 362 364 366 366 363 363 362 364 366 366 368 368 368 367 367 365 364 365 363 362 359
307 306 305 307 304 302 299 298 307 304 301 297 300 299 310 312 316 316 316 318 316 318 319 319 320 320 334 335 332 334 331 336 339 339 338 338 341 350 351 354 357 357 358 357 357 358 358 360 362 364 364 365 364 363 364 364 365 365 363 363 363 364 366 366 363 362 361 361 362 362 363 365 363 364 364 361 361 360 364 367 366 366 365 365 367 367 367 367 367 367 367 365 363 364 363 362 360
Wind_Speed
13 10 10 10 7 6 5 3 3 3 4 5 3 4 0 2 3 3 3 4 3 3 5 6 13 10 4 9 9 6 10 7 5 3 6 8 13 17 15 17 17 15 15 15 13 13 13 11 13 14 12 16 17 17 17 16 16 17 16 16 15 14 14 13 13 13 13 13 13 13 13 12 13 14 14 14 14 13 14 14 12 11 11 11 11 11 10 11 10 11 11 11 11 10 9 9 11
10 10 9 8 6 5 4 5 3 2 3 5 5 0 4 4 4 5 7 5 4 8 10 11 10 10 16 17 14 13 13 11 13 13 12 15 17 14 18 19 18 17 17 14 13 12 11 12 13 14 15 17 17 17 17 16 16 16 17 16 15 14 14 13 13 13 13 13 13 13 13 14 13 15 13 14 13 13 13 13 11 11 11 11 10 11 9 8 11 10 9 9 10 9 9 9 10
10 9 8 5 3 5 1 1 2 3 4 2 5 3 4 5 6 7 9 7 15 13 4 10 12 8 13 12 10 10 7 13 18 18 15 18 18 14 19 20 19 17 17 14 13 13 10 12 13 14 15 16 16 17 17 17 17 17 16 16 15 14 14 13 12 13 13 13 13 13 13 13 14 14 14 13 15 14 12 10 10 11 10 10 10 9 7 9 10 10 11 10 9 9 9 9 10
10 8 7 7 4 3 3 2 3 1 5 1 1 3 8 7 8 8 8 6 9 14 11 12 8 10 13 16 15 17 14 11 14 19 14 14 12 17 18 20 19 16 15 13 14 12 11 14 13 14 16 16 16 17 18 17 17 16 16 16 15 14 14 13 12 13 13 13 13 13 12 13 13 15 14 13 13 14 14 11 13 12 10 10 10 10 10 6 8 11 11 9 7 7 9 9 10
10 9 8 7 2 2 2 2 3 4 5 2 1 8 9 7 8 8 14 11 10 10 11 11 10 10 11 11 9 7 12 17 15 14 13 12 18 18 19 19 17 16 15 15 14 13 13 17 15 16 16 17 17 18 18 18 17 16 16 15 15 14 13 13 13 12 12 13 13 13 13 12 13 13 15 13 13 14 13 12 13 9 10 6 7 11 8 8 8 11 11 10 9 8 9 8 11
8 5 6 0 3 0 4 4 5 5 7 6 8 7 8 12 12 10 14 12 10 10 11 11 10 10 10 12 8 12 16 11 14 13 16 16 21 21 21 18 17 16 16 15 14 12 13 18 17 17 17 17 18 18 18 17 17 16 15 15 15 14 13 13 13 12 12 12 13 13 12 12 12 12 12 13 15 12 15 16 13 15 17 14 16 12 11 13 12 14 11 11 10 9 9 10 9
4 3 1 3 6 4 4 6 7 5 6 5 2 5 11 9 10 15 13 12 11 11 10 13 16 15 11 9 14 11 12 16 12 15 15 20 21 21 21 18 17 18 18 14 13 13 17 19 19 18 17 18 17 18 18 17 17 16 15 15 14 14 13 13 13 12 12 12 12 12 12 12 12 11 11 11 11 11 11 11 12 11 13 12 9 10 11 9 11 13 13 12 12 11 10 10 9
6 5 3 3 3 4 7 8 8 4 6 12 5 12 8 10 11 12 8 11 11 9 9 10 9 13 14 11 13 13 16 11 17 20 23 20 20 21 19 17 17 18 17 16 14 13 19 19 19 18 18 18 18 18 18 17 17 16 15 15 14 13 13 13 13 12 12 12 12 12 11 11 11 11 11 10 10 10 10 10 10 10 10 10 11 11 10 10 10 11 11 11 11 13 11 10 8
4 4 1 1 5 3 7 9 8 7 10 8 7 13 11 5 15 12 10 5 11 11 12 12 12 13 11 14 12 12 12 19 20 24 23 22 21 21 15 18 18 15 17 16 15 15 14 19 18 18 18 18 17 17 18 17 16 16 15 15 14 13 13 12 12 12 12 12 11 11 11 11 10 10 10 10 10 10 10 9 9 9 9 10 10 11 10 10 10 10 10 10 11 11 11 10 8
3 4 2 2 4 7 9 5 6 4 5 6 9 8 9 10 9 11 13 16 12 13 10 11 14 17 15 15 13 11 12 21 23 21 22 22 20 17 19 19 18 19 17 16 15 14 12 17 18 17 18 17 17 17 17 17 16 15 15 14 14 13 13 12 12 12 12 11 11 11 11 10 10 9 9 9 9 9 9 9 8 9 9 9 9 9 10 10 10 10 10 10 10 10 10 10 9
3 3 1 2 3 7 7 6 5 8 3 5 5 8 9 6 10 11 12 13 12 14 16 16 15 16 12 13 10 12 18 21 22 22 21 21 20 19 16 19 18 18 18 18 16 14 13 13 18 18 18 18 17 17 17 16 16 15 15 14 13 13 12 12 12 11 11 11 11 10 10 9 9 9 9 9 9 9 9 8 8 8 8 8 9 9 9 9 9 9 9 10 10 10 10 9 9
0 3 3 3 6 4 9 8 11 7 9 8 6 6 7 12 8 11 12 14 13 15 15 12 11 15 15 14 10 13 19 20 20 21 20 19 15 19 15 14 17 18 19 18 17 15 14 13 13 17 19 18 17 17 17 16 16 15 15 14 13 12 12 12 11 11 11 10 10 10 9 9 8 8 9 9 8 8 8 8 7 7 7 8 8 9 9 9 8 8 9 9 9 9 9 9 8
2 2 2 3 4 8 10 11 4 8 12 8 3 2 5 14 7 7 14 14 11 9 12 13 17 12 14 13 11 15 18 19 19 20 19 16 16 16 16 16 18 19 19 19 17 17 17 14 14 14 15 18 17 17 16 16 15 15 14 14 13 12 12 11 11 10 10 10 9 9 9 8 8 8 8 8 8 8 8 8 7 8 7 7 7 7 7 8 8 8 8 9 9 9 8 8 7
8 3 1 3 4 7 7 8 3 3 5 3 4 9 6 6 12 9 11 9 12 10 13 18 14 16 16 14 12 13 15 19 19 20 17 18 15 16 15 17 18 19 19 19 18 17 16 15 14 13 14 13 12 14 15 15 14 14 14 13 12 12 11 11 10 10 10 9 9 8 8 8 8 8 8 8 8 7 7 7 7 6 6 6 6 6 6 6 7 7 7 8 8 8 8 7 7
5 8 3 1 4 6 6 5 5 1 7 4 3 5 8 6 9 8 11 10 11 11 15 13 16 13 11 16 13 14 16 19 20 17 18 20 19 19 19 16 17 17 18 18 17 17 16 15 15 12 12 12 12 10 9 11 14 14 13 12 11 11 11 10 10 10 9 9 8 8 8 7 7 7 7 7 7 7 6 6 6 5 6 6 5 6 5 6 5 6 6 6 7 7 7 7 7
7 8 3 2 4 4 5 9 5 1 4 9 4 7 7 8 6 8 11 10 10 12 15 10 13 7 18 15 19 19 20 20 20 18 18 17 16 17 19 16 15 17 16 17 16 15 15 15 13 12 11 12 10 10 10 10 12 13 12 12 11 11 11 10 10 9 9 8 8 8 7 6 6 6 7 6 6 6 4 4 5 5 4 5 5 4 5 4 5 5 6 6 6 6 6 6 6
8 8 6 4 6 3 4 7 3 4 9 4 8 6 8 6 7 9 10 10 12 11 10 9 10 17 16 17 21 24 22 19 17 19 17 14 12 10 11 11 13 14 13 15 14 13 16 15 15 11 11 12 12 11 10 9 10 13 11 11 11 11 10 10 10 10 9 8 8 7 6 4 4 3 4 4 7 5 7 6 5 4 5 4 5 5 4 5 5 5 5 5 5 6 5 4 4
8 7 6 6 6 5 4 8 2 11 9 5 7 2 8 9 6 8 10 10 9 9 11 9 12 14 17 20 21 21 23 21 19 19 18 16 11 12 12 12 11 12 13 12 13 14 13 13 13 12 11 11 10 9 8 8 9 10 9 8 8 8 9 9 8 7 8 5 8 6 4 3 2 3 4 4 4 5 5 6 5 6 5 5 4 4 5 4 4 5 4 4 4 5 5 2 2
8 7 9 6 5 5 7 9 5 9 7 3 8 11 4 7 5 6 6 9 10 11 10 10 18 19 21 22 22 23 23 22 21 19 19 18 14 14 12 11 13 12 13 12 11 14 11 12 12 13 13 10 12 10 9 8 10 7 9 8 7 9 8 8 6 6 5 5 5 5 4 4 4 3 3 4 4 5 6 7 6 6 6 6 5 4 4 4 4 4 4 4 4 5 3 1 2
11 9 6 3 7 7 8 9 8 12 8 14 9 8 8 3 3 5 8 8 10 10 10 14 16 19 21 22 22 21 23 20 19 19 19 17 16 16 14 14 12 13 13 12 12 11 13 11 12 12 12 11 10 8 9 9 8 7 7 7 6 6 7 6 6 5 5 5 6 4 4 3 3 3 6 7 7 5 4 6 6 5 6 6 6 4 4 5 3 3 4 4 4 4 2 3 3
7 10 9 11 8 5 8 10 15 13 15 13 9 8 5 9 5 7 11 9 6 9 12 11 16 20 22 22 22 20 21 23 20 19 19 17 16 15 14 14 13 11 12 11 11 11 13 13 11 11 11 10 10 8 8 9 8 8 7 7 6 6 6 6 5 5 4 4 4 4 5 5 5 4 3 3 3 4 3 4 4 4 2 3 6 3 2 3 3 2 3 4 2 3 3 3 3
8 11 11 7 9 10 6 8 10 17 17 3 3 11 5 7 8 6 9 4 5 8 12 12 17 21 23 23 22 21 21 20 21 19 18 15 19 16 15 14 14 12 11 11 12 12 13 13 13 11 11 8 8 8 8 8 9 7 7 7 6 6 6 5 4 5 5 6 6 6 5 5 5 4 4 4 4 3 4 3 4 4 4 4 4 3 2 1 2 2 1 3 4 3 2 2 3
11 11 11 10 13 6 5 5 10 22 13 6 3 17 14 7 7 10 6 10 12 7 15 16 18 21 22 21 21 20 22 20 21 20 20 18 18 17 16 14 14 14 11 11 11 11 12 14 13 12 12 9 10 8 6 7 7 6 6 6 6 6 5 5 5 4 4 5 6 5 6 6 5 5 5 4 4 3 3 3 3 3 3 2 4 3 3 1 2 2 2 1 3 4 1 1 3
13 10 8 9 13 12 10 10 9 15 8 5 4 6 6 7 3 8 10 9 13 10 17 18 19 20 22 22 21 22 21 21 21 19 19 17 18 16 16 17 15 13 12 13 12 12 12 15 13 13 11 10 9 9 7 5 7 8 8 7 7 6 6 5 6 5 5 5 5 4 7 4 6 5 4 4 4 4 3 4 3 3 3 3 3 4 3 3 2 0 0 2 2 3 3 8 8
13 13 14 11 11 12 18 8 7 14 10 7 2 6 6 8 4 6 8 9 16 12 15 19 20 20 20 21 20 20 19 19 18 19 18 14 16 17 17 14 15 13 14 14 13 13 15 14 15 14 14 11 9 9 10 7 7 7 6 6 7 6 6 6 5 5 3 5 4 3 3 4 1 4 5 3 3 3 3 1 2 2 1 2 4 3 5 4 4 3 3 2 2 5 5 4 5
14 15 13 13 13 10 10 13 10 18 11 6 8 8 4 6 10 5 13 10 15 15 17 19 20 19 20 20 19 19 18 19 19 18 16 15 16 18 17 15 15 15 15 15 14 12 15 15 16 16 15 12 10 11 8 8 6 6 7 6 6 5 6 5 6 4 4 4 5 5 6 4 4 4 3 3 3 1 2 2 1 0 2 2 1 2 4 2 3 3 2 7 7 5 5 4 4
10 14 14 14 15 14 10 12 14 15 11 8 9 7 7 7 6 6 10 13 15 17 17 19 19 19 20 18 18 17 20 19 19 18 17 15 15 13 16 15 16 16 16 16 15 13 12 14 15 15 14 11 10 10 8 8 8 6 6 6 5 4 5 5 3 4 4 5 4 5 2 1 3 3 2 3 2 3 2 0 2 1 2 1 4 4 0 2 1 2 1 1 1 3 4 4 4
14 13 15 16 16 16 12 11 12 10 11 11 11 11 6 7 10 4 11 14 16 17 18 18 18 18 18 19 19 16 16 17 16 17 20 20 14 15 17 15 15 15 16 16 14 13 15 16 16 16 15 13 10 12 8 9 8 7 7 6 6 6 5 4 5 6 5 4 4 6 3 1 2 4 1 2 4 1 2 2 2 1 3 3 3 3 1 2 3 2 2 1 2 4 5 3 3
12 16 14 11 11 11 14 14 11 10 10 11 11 10 11 11 10 6 10 16 16 17 18 16 18 17 18 17 18 16 17 17 17 16 19 15 16 14 17 16 17 16 13 16 15 14 18 16 14 16 15 13 12 13 10 8 7 8 7 6 6 8 6 6 6 6 4 2 4 5 4 3 0 2 2 2 4 1 3 1 2 3 0 2 1 0 1 3 4 2 2 2 4 3 4 1 4
14 12 11 13 14 13 15 14 15 14 11 9 9 9 8 9 10 11 11 14 16 17 15 15 14 16 16 17 17 17 17 17 17 15 15 16 16 16 16 17 17 15 13 12 17 17 14 13 13 13 14 15 13 12 9 7 7 7 6 6 6 6 7 6 5 3 3 4 4 5 5 3 3 2 3 2 0 3 2 4 2 3 1 1 2 1 3 3 3 2 1 4 3 4 2 3 4
10 13 12 12 11 11 13 14 16 16 12 13 10 10 6 10 14 11 12 16 15 15 14 14 15 14 15 15 16 16 18 17 18 18 18 17 17 16 16 16 16 16 12 14 16 18 17 14 13 13 14 15 13 10 10 8 8 8 6 5 5 6 6 7 6 6 6 5 5 5 5 4 3 2 2 3 2 2 1 1 1 1 3 2 4 2 1 2 2 3 2 3 2 1 0 3 3
11 10 14 12 12 10 14 15 16 15 13 16 14 9 9 8 9 15 13 15 14 13 14 14 12 13 15 14 16 16 16 17 18 19 19 19 17 15 17 16 15 16 14 15 15 15 16 14 14 14 16 14 13 9 9 7 8 6 6 6 4 7 5 7 6 6 6 5 5 6 5 5 4 3 3 3 2 2 2 3 1 2 4 1 2 3 2 2 1 3 3 3 3 4 4 2 4
12 13 11 13 13 12 12 14 16 19 14 14 15 9 8 10 13 16 15 16 14 13 14 11 11 14 15 14 15 14 15 17 17 18 19 18 17 14 14 15 15 15 16 16 15 15 14 15 12 16 18 15 13 10 9 8 6 6 6 7 8 6 6 5 5 4 5 5 4 6 6 5 5 4 4 3 2 2 1 2 1 4 5 1 4 1 1 3 3 2 3 2 2 3 4 6 1
13 13 12 12 14 12 12 12 16 18 16 13 18 13 12 4 15 12 15 15 12 12 14 16 14 10 12 13 14 13 14 15 17 17 20 18 15 17 16 14 16 15 14 16 16 15 14 13 12 12 13 15 11 9 9 8 6 5 5 5 5 6 5 5 4 4 4 4 4 5 8 6 5 5 4 3 3 2 2 6 9 4 4 2 2 0 1 3 1 3 1 3 2 4 4 4 5
11 12 13 13 15 15 13 11 10 15 19 16 13 13 15 11 11 13 15 13 12 12 14 9 10 9 11 12 13 16 14 16 16 14 19 19 18 18 16 16 17 16 14 18 13 13 11 10 10 8 14 14 13 10 9 7 7 6 4 5 5 4 4 3 4 4 5 4 6 5 9 6 6 5 5 4 3 3 2 3 1 2 3 4 1 2 1 3 1 1 2 2 3 2 3 3 1
14 14 13 13 13 13 14 15 13 15 15 15 16 13 14 13 15 15 15 14 11 12 11 15 16 14 12 11 13 14 13 16 14 15 17 17 15 16 15 16 16 15 15 14 13 14 10 12 11 7 10 13 12 9 8 8 7 7 7 5 5 4 4 4 3 3 4 4 5 6 8 6 6 5 5 5 4 3 2 2 2 2 3 4 2 3 3 1 2 1 2 3 1 1 2 2 3
16 16 16 15 14 14 15 16 12 12 12 15 17 17 15 16 14 18 16 14 14 15 15 11 10 13 12 12 11 13 14 15 14 15 16 17 17 16 14 15 15 16 13 13 14 14 12 12 13 11 10 10 10 9 9 9 8 7 7 8 7 6 5 5 5 4 4 4 4 5 9 6 6 6 5 5 5 4 3 2 2 2 2 3 3 3 5 5 3 3 2 1 2 1 1 2 2
20 17 16 15 16 14 15 16 15 13 13 13 18 18 17 15 13 20 19 18 18 20 16 15 16 15 13 14 14 14 12 11 15 13 15 17 16 19 16 13 15 16 13 15 14 14 14 13 15 13 11 11 11 11 10 8 7 7 7 7 6 7 6 6 6 5 6 7 5 5 8 6 7 6 5 5 5 4 4 3 2 2 2 3 3 3 4 5 4 2 3 1 2 2 1 3 1
20 17 15 15 13 13 14 18 15 15 16 12 17 18 16 19 17 16 21 20 16 22 21 19 19 17 14 14 11 10 10 12 15 17 18 16 19 19 14 14 16 18 18 17 14 14 14 12 12 12 11 13 12 12 10 9 8 7 8 7 8 6 6 6 7 6 6 6 6 5 6 6 7 6 6 5 5 5 5 4 3 3 2 3 4 3 2 3 2 2 4 3 2 1 1 2 1
15 16 16 14 12 12 12 15 16 13 10 12 13 15 13 17 15 16 18 21 16 19 25 22 19 20 18 18 17 14 15 14 17 17 19 18 18 16 16 15 15 16 15 15 16 15 14 10 11 12 10 11 10 11 10 9 8 7 7 6 7 6 6 6 5 5 6 7 7 7 5 6 6 7 7 6 5 5 5 5 4 4 3 3 3 3 3 3 3 3 2 2 3 2 2 2 1
18 19 17 15 16 15 14 11 16 16 15 11 12 13 11 10 13 13 9 17 15 16 28 21 19 20 19 17 17 18 19 19 18 18 18 17 16 17 17 15 17 17 17 17 18 16 14 15 13 14 12 11 8 12 12 10 8 8 7 6 6 5 5 6 6 5 6 6 6 7 8 7 7 6 7 7 6 5 5 4 4 3 4 3 3 4 3 3 4 3 3 2 2 1 1 2 2
16 22 21 19 18 17 15 17 14 13 14 16 17 9 11 11 16 16 13 16 16 15 25 21 17 19 19 19 19 19 16 16 17 18 18 20 20 17 15 16 18 18 17 17 18 18 15 15 13 14 12 10 10 14 13 11 9 8 9 8 8 8 6 7 8 7 8 8 9 9 9 8 8 7 6 7 7 6 5 5 4 4 4 4 4 3 3 3 3 3 3 2 2 3 1 2 1
16 16 21 22 20 18 18 17 14 12 14 15 19 16 11 12 15 16 17 13 15 14 26 21 21 20 20 18 17 18 19 17 17 17 18 20 17 17 17 17 19 19 18 17 16 16 15 15 13 14 13 11 10 11 14 11 10 9 10 9 8 9 8 6 6 7 7 6 6 6 6 9 8 9 8 8 7 6 5 5 5 4 4 5 4 3 3 3 3 3 5 3 3 3 2 1 4
15 13 18 21 22 20 18 18 15 12 13 11 20 15 11 12 14 16 18 17 14 15 26 28 24 24 23 21 21 19 18 18 17 19 19 18 18 20 19 21 19 20 19 18 17 16 16 17 15 14 12 12 10 10 14 12 11 10 10 10 8 8 9 7 7 7 5 5 7 7 7 8 8 8 7 7 7 6 6 6 5 5 4 5 5 4 4 4 3 3 2 5 4 3 2 1 2
12 13 15 18 21 21 18 15 14 13 12 12 15 22 16 12 10 13 17 19 18 16 17 20 21 24 23 21 21 21 20 19 18 16 20 18 19 19 19 18 20 19 18 18 17 16 16 17 16 14 14 14 12 11 13 13 11 11 10 9 9 8 8 7 6 6 6 6 7 6 5 8 8 8 7 7 7 7 7 6 6 5 5 4 5 4 4 4 4 3 3 4 4 3 2 1 2
17 16 14 14 16 20 20 15 14 13 13 14 15 14 10 11 12 15 16 18 20 19 20 18 24 23 21 20 20 21 17 16 19 18 13 12 10 15 16 15 18 17 16 16 16 15 15 15 16 16 16 13 13 13 13 14 13 11 11 11 11 9 8 8 7 8 8 7 6 8 5 7 8 8 8 6 7 7 7 7 6 7 6 6 5 5 6 5 4 5 3 4 5 4 3 2 2
12 16 14 12 12 12 14 14 12 11 16 16 19 18 14 11 10 10 12 15 16 18 18 13 22 22 21 20 22 20 18 16 16 19 17 13 14 11 12 14 12 13 14 16 17 16 17 17 17 18 17 14 15 14 14 16 14 12 11 12 12 11 11 9 9 9 9 8 7 7 7 6 8 8 8 7 7 8 7 8 8 8 6 6 5 5 5 6 5 5 4 5 5 4 4 3 2
17 11 13 9 9 10 11 11 14 14 17 16 18 19 15 13 11 14 13 10 14 13 11 20 24 19 20 19 19 21 21 19 17 16 16 17 16 16 13 13 16 17 17 17 18 17 17 16 18 19 17 16 15 15 15 16 15 14 12 13 13 12 11 10 10 10 11 10 8 7 7 6 6 8 7 7 7 10 7 8 8 7 7 6 7 5 4 5 6 5 5 5 5 4 4 3 3
16 13 13 13 10 10 10 8 14 17 14 9 18 18 16 18 12 11 15 14 13 17 12 17 19 23 23 21 20 19 17 19 18 14 15 15 11 12 14 17 15 17 17 19 21 21 19 18 20 20 19 18 16 17 17 17 16 15 14 14 13 11 11 11 10 9 10 9 8 7 7 7 6 6 8 8 9 10 8 8 8 7 7 6 6 6 5 5 5 6 6 5 5 5 4 5 4
17 16 14 15 13 12 10 12 9 10 13 13 12 19 17 13 12 18 19 14 13 18 18 19 24 22 22 22 22 20 19 19 17 17 17 14 13 8 12 16 17 19 21 20 21 19 17 18 20 21 20 19 17 17 18 17 17 16 14 13 13 12 11 11 9 9 9 9 9 9 8 8 8 8 8 8 9 10 9 9 8 8 6 6 7 7 6 5 5 6 7 7 7 6 5 5 4
16 14 14 13 11 10 12 11 15 14 7 13 18 12 13 18 9 12 20 20 16 11 16 18 22 23 22 25 22 22 22 19 18 17 19 17 18 18 16 17 20 22 22 22 20 18 18 18 20 22 21 20 19 18 17 18 16 16 15 14 13 11 11 11 10 9 8 10 9 9 8 8 8 8 9 8 8 9 9 9 9 8 7 8 7 7 7 6 5 5 7 7 6 6 6 5 5
16 15 13 15 17 10 11 9 11 10 11 10 14 15 11 10 6 13 14 19 21 17 12 17 19 22 22 22 20 21 20 20 20 20 19 19 19 19 18 18 19 21 20 20 21 18 19 19 21 23 22 22 20 19 18 18 16 15 16 15 15 13 11 11 9 9 8 9 10 9 9 8 8 8 8 8 9 8 9 9 10 9 8 8 8 7 7 6 7 6 7 7 6 7 7 7 6
14 15 18 17 12 13 9 10 13 13 11 12 8 11 14 11 13 13 15 17 20 21 18 16 17 24 23 20 21 21 19 19 19 20 19 18 16 16 20 21 17 20 22 22 21 20 21 20 21 22 22 21 21 20 19 18 17 16 17 16 14 14 14 14 13 13 14 10 10 10 9 10 9 8 9 8 9 9 8 10 10 10 9 8 9 8 8 8 8 7 7 8 8 7 8 8 7
11 17 16 13 15 13 10 9 6 10 12 9 11 14 12 13 10 11 14 15 14 19 21 20 16 23 25 22 21 19 21 22 22 20 20 18 17 17 15 12 18 24 26 23 21 19 18 19 21 23 22 23 21 20 19 19 18 18 17 17 16 16 15 16 14 13 12 10 10 10 9 10 10 9 9 9 9 10 8 9 10 10 10 9 9 9 9 9 8 8 8 7 8 7 7 8 7
15 14 13 15 13 14 11 8 12 10 11 8 12 16 13 13 10 11 17 18 16 14 17 20 18 21 24 22 20 21 19 20 21 22 18 16 14 15 16 20 25 26 23 21 20 20 19 19 21 23 25 25 24 21 20 17 18 15 15 17 18 16 14 14 13 12 12 12 13 12 12 10 10 10 8 7 10 10 10 9 8 10 10 10 9 10 9 9 9 8 8 8 8 8 6 7 8
23 12 15 15 11 12 12 12 7 7 9 9 8 7 8 10 11 14 13 15 13 15 13 20 15 23 20 19 22 21 19 19 20 18 19 20 22 23 24 24 26 26 25 23 24 22 24 23 22 22 21 20 20 20 18 18 18 17 16 16 16 15 15 14 13 13 13 13 12 12 12 12 11 10 10 9 8 10 11 11 10 10 11 12 11 10 10 9 9 9 8 8 9 9 8 7 8
19 16 13 14 11 8 11 10 13 8 7 7 7 10 8 10 7 13 12 13 14 14 12 10 15 20 19 24 21 18 17 17 22 20 20 23 21 23 26 26 25 25 22 22 22 25 23 22 22 23 22 23 23 22 20 18 17 17 17 18 18 17 17 15 15 14 13 13 12 11 11 11 9 9 10 11 10 9 10 11 12 10 11 11 11 10 10 9 9 9 8 8 8 10 10 8 7
18 16 15 15 16 14 15 13 12 13 8 5 6 7 3 6 12 10 12 12 15 15 13 11 16 20 22 21 21 18 18 16 19 18 20 20 20 21 21 20 19 20 22 25 23 22 23 23 22 23 23 22 23 22 19 19 18 17 19 19 19 18 17 15 16 15 14 13 13 12 11 10 11 10 10 11 12 11 9 11 12 11 11 10 11 11 11 10 10 10 10 8 9 10 11 10 8
Wind_Direction
160 172 170 207 195 178 183 198 255 171 229 256 294 236 60 194 100 158 159 97 95 28 161 188 146 146 184 130 173 106 44 67 259 261 114 133 141 148 155 138 141 144 147 144 142 145 146 148 145 146 155 155 132 134 131 129 128 128 127 125 122 117 113 111 112 109 108 104 103 102 100 93 94 94 92 89 87 87 88 89 86 84 91 99 96 87 81 81 86 85 88 82 77 82 89 92 97
165 175 171 193 188 184 208 176 265 250 236 291 269 219 235 142 133 196 149 169 101 164 192 181 128 148 121 116 116 94 60 54 79 90 96 125 140 146 145 142 146 151 146 142 144 147 146 146 144 148 160 140 135 131 129 127 131 131 128 126 121 117 114 114 113 112 110 107 105 103 103 107 97 91 92 93 94 91 89 85 84 86 81 86 84 86 86 98 92 88 84 81 78 79 90 101 102
169 166 173 184 175 227 351 180 290 0 265 261 295 235 146 181 191 152 148 189 138 171 162 117 109 126 117 119 106 93 91 96 102 102 115 135 136 148 148 148 149 148 140 143 148 148 143 147 152 153 143 136 136 134 131 133 134 131 127 124 121 117 116 117 116 115 112 110 108 104 100 95 97 96 97 97 91 88 90 86 86 81 85 92 105 99 93 106 105 97 86 77 85 85 89 96 102
167 170 166 181 196 201 266 205 245 215 303 59 40 198 176 166 152 157 137 164 111 139 140 102 86 55 101 96 99 98 107 104 111 121 128 146 143 147 148 148 145 142 143 147 148 146 144 144 148 148 144 136 137 137 133 134 133 130 127 123 120 119 119 119 118 116 114 112 106 103 99 97 96 101 96 91 98 100 88 71 64 54 48 48 61 66 57 44 86 97 91 89 95 102 98 102 106
167 177 184 189 264 248 291 284 304 327 285 14 141 203 195 152 121 141 118 133 119 96 106 110 94 99 91 92 108 104 110 114 116 123 130 133 139 145 147 145 145 145 146 146 143 141 140 141 144 147 143 138 138 139 136 135 132 128 126 124 121 121 122 122 121 119 114 110 106 104 102 98 94 92 98 101 105 104 99 102 108 107 89 94 69 109 148 153 134 113 118 115 107 106 104 103 104
172 172 220 61 247 305 279 265 226 217 211 201 194 196 147 130 142 116 115 109 107 105 112 112 106 106 83 72 93 108 135 127 133 123 131 136 144 146 144 147 145 146 142 141 141 138 141 142 144 145 143 138 139 138 135 134 130 129 127 124 123 124 125 125 123 119 114 109 108 104 101 98 94 92 92 104 102 103 127 129 137 150 139 147 165 138 131 120 129 124 123 117 119 111 110 102 99
164 182 340 348 264 244 272 278 288 265 234 212 121 124 122 104 124 127 119 113 112 116 114 110 113 109 100 93 102 114 111 124 130 131 133 139 141 144 146 147 145 139 141 141 139 136 139 142 144 144 141 140 140 139 136 132 131 131 129 126 126 129 129 126 123 120 115 111 107 103 100 99 97 93 94 91 96 108 106 107 117 121 122 123 110 110 101 100 100 105 118 124 121 108 105 102 103
183 186 198 210 290 228 258 267 281 199 155 183 156 102 114 146 124 102 113 117 123 106 109 100 96 91 90 108 98 108 124 120 117 128 131 137 143 146 149 141 135 139 139 139 137 131 136 142 144 142 143 143 144 139 135 134 132 133 130 128 131 132 130 127 124 121 116 111 107 106 105 101 98 97 95 90 91 89 84 83 81 79 88 94 95 96 98 95 93 93 93 96 96 106 107 106 105
209 203 315 324 278 272 288 299 279 141 249 128 80 104 130 169 119 134 120 111 105 92 111 116 108 102 102 100 98 100 104 118 122 127 134 139 148 149 146 135 140 142 137 137 130 131 138 142 141 143 146 145 142 139 138 135 135 134 130 132 133 133 131 128 126 121 116 112 110 109 108 103 99 98 94 91 88 85 81 80 77 77 76 79 82 84 90 92 94 96 95 94 96 101 108 108 109
232 222 274 294 308 296 310 292 270 72 15 310 127 122 131 144 95 108 109 125 121 117 101 91 100 101 111 103 117 120 121 122 129 133 136 144 148 144 141 136 138 141 136 133 132 135 135 140 141 146 148 147 144 142 140 138 137 132 133 134 134 133 131 130 126 122 118 115 113 111 109 107 104 102 96 91 86 82 84 83 83 81 79 79 84 86 89 96 95 95 97 97 102 101 105 111 113
206 229 316 298 289 326 306 351 348 16 215 148 63 114 83 86 122 108 119 97 127 116 115 111 103 107 109 103 99 115 126 131 136 138 143 144 144 143 138 136 143 137 134 135 135 131 136 142 145 148 148 147 144 142 140 140 136 134 135 136 135 133 133 131 128 124 119 118 115 115 110 108 107 102 99 93 86 81 82 80 81 84 84 86 91 92 91 91 96 97 97 104 104 108 106 109 113
225 258 201 286 304 299 305 325 331 166 195 331 150 94 118 76 56 119 118 130 126 126 123 126 115 118 105 113 117 133 137 139 137 141 142 141 146 141 142 139 138 134 136 135 132 135 140 143 149 149 148 146 144 142 142 139 137 137 136 136 135 135 135 134 131 126 124 120 120 118 115 113 111 107 103 98 94 95 89 90 88 87 88 86 87 92 92 93 95 98 99 99 102 103 104 104 110
178 251 279 268 294 301 315 309 265 59 330 158 102 137 64 131 113 101 115 112 118 114 120 123 137 127 114 116 127 137 142 140 141 141 141 152 146 140 132 137 136 139 135 134 137 141 143 148 148 149 146 145 144 144 142 139 139 139 137 136 136 137 137 135 132 131 128 127 125 124 125 123 120 118 109 100 92 86 82 87 94 91 92 87 84 87 91 94 98 101 105 102 103 107 111 112 110
208 189 240 290 267 285 301 287 35 3 214 176 108 96 149 104 134 124 93 81 103 132 139 141 127 113 109 122 137 146 140 143 144 147 144 141 137 136 137 139 141 139 137 139 140 143 147 149 148 146 146 146 145 144 141 140 140 139 138 138 138 141 139 138 137 136 135 135 134 135 134 133 128 124 116 104 99 96 100 95 92 96 95 99 97 96 103 106 101 104 106 107 105 111 118 120 116
186 184 156 208 275 299 304 292 301 333 311 17 93 111 106 104 105 115 119 142 109 123 99 121 128 132 148 143 148 153 147 148 148 150 147 144 144 144 139 141 138 142 141 139 141 145 148 147 147 145 151 148 146 144 143 143 142 140 140 140 143 143 144 143 142 143 144 145 145 143 145 137 136 131 125 120 109 103 105 110 100 100 97 96 100 105 113 112 110 102 106 115 120 120 124 130 132
226 161 153 221 232 214 283 260 265 148 214 250 80 98 82 96 94 98 110 129 111 120 145 140 162 121 148 144 149 146 151 151 152 152 143 129 136 139 141 146 141 143 140 142 145 146 147 149 147 152 151 148 151 145 142 144 145 143 143 148 148 148 150 150 150 151 154 156 155 155 153 151 148 143 142 136 130 127 151 121 130 114 107 111 114 118 115 126 122 133 124 128 132 135 135 138 150
220 246 199 207 261 239 225 242 244 176 258 342 167 158 110 90 76 99 112 120 133 151 127 148 96 136 145 140 147 145 148 145 157 147 138 138 138 148 134 141 146 142 144 147 148 147 147 145 150 150 151 155 151 144 145 145 148 148 148 152 155 156 156 159 157 160 163 166 164 163 165 177 169 149 163 154 153 143 128 133 149 137 134 138 136 139 143 138 152 146 154 136 140 141 130 140 156
235 217 275 276 289 248 272 272 242 314 328 194 124 260 134 133 143 123 134 122 103 127 107 99 148 117 123 135 136 145 145 154 159 150 151 146 142 145 142 143 141 147 147 147 146 147 144 147 151 152 153 161 147 146 150 149 149 156 157 156 161 164 165 163 168 170 175 170 178 167 177 176 142 205 159 182 145 145 153 156 157 163 158 157 168 164 163 173 169 166 161 166 145 142 145 153 188
224 232 230 223 251 277 286 304 100 284 236 112 298 94 345 100 155 158 142 125 129 119 109 104 104 112 121 133 145 151 150 155 158 156 153 153 150 147 146 145 151 150 148 149 151 149 147 151 155 155 157 160 148 152 153 150 155 161 163 164 166 170 172 175 174 185 179 168 188 170 179 169 185 184 121 180 153 166 161 170 176 175 179 184 187 192 198 188 187 182 176 184 170 152 167 140 180
222 259 228 190 220 263 287 263 245 219 275 267 173 116 194 142 112 170 147 138 133 129 128 125 118 124 134 139 145 153 153 154 160 154 155 160 153 151 150 153 154 153 151 153 153 152 153 156 157 156 157 159 154 156 155 153 159 166 166 173 166 174 176 182 184 185 183 184 176 176 175 163 174 169 184 176 154 172 153 179 184 188 203 207 204 205 210 232 220 204 195 180 193 186 181 199 199
200 225 246 182 187 235 237 258 269 262 250 210 137 149 169 167 172 202 115 137 153 116 137 139 135 133 136 144 148 154 156 159 161 159 159 163 158 153 158 156 160 153 154 150 150 157 156 154 156 155 160 162 160 156 156 158 164 169 171 173 172 176 171 185 183 179 178 185 174 182 194 176 179 183 181 168 206 139 170 174 183 197 197 226 206 226 209 175 174 194 186 202 200 202 200 214 192
243 235 241 152 173 214 242 225 259 273 265 230 122 89 256 148 162 123 125 133 161 155 135 131 139 141 142 148 153 158 160 161 158 161 163 170 168 161 161 160 156 155 148 156 159 158 160 155 158 157 164 160 158 163 160 158 166 178 170 173 175 176 173 176 182 183 185 187 186 190 194 194 186 176 179 182 182 178 169 179 182 181 192 208 191 196 198 200 163 203 171 201 210 199 176 217 208
234 243 249 159 201 226 237 220 262 260 228 253 131 149 212 155 146 127 151 168 164 225 124 139 138 141 144 146 153 158 157 169 162 165 165 177 168 166 164 163 160 162 158 160 159 161 160 163 156 160 162 166 168 163 160 159 172 182 168 168 180 175 173 169 180 189 200 181 199 169 174 198 176 183 189 174 168 179 171 199 186 173 204 201 175 189 187 175 140 223 221 271 249 220 141 285 308
234 256 244 218 169 198 219 224 248 248 280 219 244 105 220 123 169 159 157 168 124 153 147 143 140 144 146 152 161 160 162 172 162 171 169 175 173 167 168 165 166 155 159 156 162 164 166 167 157 166 163 171 175 156 151 173 173 183 179 166 183 168 163 178 180 194 176 213 178 194 178 234 157 186 190 175 156 187 176 178 189 195 196 188 185 162 173 157 159 163 221 321 305 338 199 213 180
232 234 248 259 230 203 194 198 224 263 230 263 271 215 210 135 156 174 141 129 125 159 136 136 140 146 153 154 161 159 163 165 167 168 172 170 178 170 176 166 164 157 161 159 167 168 170 169 164 170 165 174 176 162 162 176 184 180 176 179 171 186 162 185 174 176 188 198 183 180 224 217 161 183 164 170 162 141 211 107 196 203 168 196 175 142 160 178 151 193 168 109 307 266 222 196 184
223 238 236 238 248 228 211 182 175 248 252 213 227 225 252 219 149 223 137 151 133 135 132 138 144 153 156 160 158 161 165 173 167 172 173 171 184 177 176 170 165 170 160 163 167 167 172 168 168 166 167 176 174 175 164 170 182 194 165 177 174 176 165 189 157 162 203 177 189 196 216 200 194 132 179 155 145 141 139 214 155 275 295 293 14 173 117 164 148 187 166 171 195 175 249 245 134
222 227 229 251 257 255 217 225 209 217 234 219 237 228 231 204 179 182 149 157 146 145 147 142 150 156 157 161 162 173 164 176 174 167 178 176 182 181 177 172 172 173 161 167 168 170 173 167 168 169 173 170 175 179 173 167 186 189 159 168 176 178 184 132 171 169 209 191 177 180 230 254 307 98 47 110 128 166 157 257 110 173 261 357 302 41 77 77 311 162 125 47 135 228 244 239 150
244 243 218 221 235 251 259 230 222 229 222 225 245 258 219 234 167 218 159 158 145 148 147 150 154 162 162 164 162 169 171 176 174 179 175 179 183 183 185 174 174 170 167 173 168 169 173 174 174 169 173 175 178 180 178 174 182 180 167 175 182 179 177 158 177 184 205 190 166 152 184 210 200 97 148 181 109 181 134 213 155 248 194 188 187 175 99 177 140 66 59 336 211 248 251 259 240
248 249 250 253 233 245 234 244 241 221 238 215 217 242 228 206 216 180 170 150 156 148 156 154 160 160 162 165 161 170 179 174 179 185 177 177 177 197 184 179 176 174 175 171 171 171 170 178 172 172 172 179 178 183 177 179 175 185 167 183 183 180 179 184 191 189 177 182 131 161 152 191 349 120 124 227 134 269 125 100 199 231 260 99 66 314 45 54 50 15 270 245 237 233 248 190 254
242 246 254 254 240 230 231 229 229 226 233 238 206 235 229 219 203 174 156 167 161 151 158 164 155 164 162 167 163 170 174 176 183 185 178 177 179 188 187 177 182 176 171 177 168 173 177 177 170 175 173 178 181 184 169 177 179 182 177 182 173 183 182 191 182 163 164 180 143 150 156 186 160 199 158 186 141 171 159 193 128 275 78 284 110 87 78 45 313 88 277 270 257 255 136 37 315
248 233 230 239 250 248 232 223 210 223 213 217 225 245 222 228 203 170 168 158 158 154 160 163 161 160 164 170 167 172 175 177 183 183 178 183 184 182 187 181 180 175 169 177 176 178 177 175 172 174 171 176 181 181 170 179 177 181 179 183 181 181 184 190 184 172 185 175 156 151 166 166 173 185 171 160 213 184 156 107 242 170 193 142 66 355 111 179 212 161 230 264 270 256 1 140 19
232 233 221 226 240 245 247 210 215 215 208 216 203 237 246 244 182 154 146 154 160 163 165 168 170 166 161 171 167 175 174 180 182 180 182 183 187 182 179 184 177 180 172 177 173 180 178 179 170 176 168 172 179 181 168 180 175 180 176 185 185 183 187 194 188 189 173 173 177 154 171 165 173 181 173 151 197 231 201 103 47 354 347 12 92 80 315 88 24 20 310 288 32 335 299 164 100
222 229 233 222 221 237 248 233 205 208 225 201 225 228 237 244 139 146 163 154 162 167 174 157 164 172 169 173 167 175 175 178 184 184 185 181 183 184 181 179 179 178 174 179 172 179 178 180 168 176 174 173 176 178 169 173 169 180 176 182 197 178 199 195 185 191 168 184 181 156 167 165 177 177 177 179 200 217 91 103 306 172 200 18 79 124 312 43 140 168 258 302 90 289 318 74 81
213 212 230 232 230 214 238 249 210 191 212 214 205 229 229 207 137 161 155 152 176 183 165 152 180 183 169 167 164 176 176 180 186 184 185 181 179 180 187 178 180 181 169 179 175 178 180 174 174 175 167 174 170 175 168 167 169 184 182 176 207 177 207 202 195 179 180 181 178 150 158 165 176 171 179 184 177 227 214 118 225 147 132 122 139 78 358 147 351 109 297 342 359 333 20 21 20
210 204 216 225 237 241 224 225 198 204 183 228 217 214 237 139 164 156 147 161 175 183 145 139 153 196 165 170 173 177 180 182 189 189 184 181 179 181 181 187 179 182 173 181 173 173 176 162 173 160 164 173 173 171 160 161 175 177 185 190 197 183 193 226 197 187 191 188 186 152 149 163 171 173 177 178 179 212 193 229 72 202 119 118 176 135 59 10 36 268 129 62 316 26 52 44 151
225 217 217 223 225 224 237 217 211 201 195 208 230 215 220 203 168 156 160 173 179 170 159 167 181 180 175 176 181 176 181 180 186 188 188 181 182 182 183 187 182 185 176 177 168 173 172 157 170 167 166 169 169 172 160 170 181 179 184 186 195 192 179 214 236 208 191 186 192 156 150 161 165 174 174 177 186 197 225 224 178 163 174 123 123 111 65 14 286 130 192 149 149 231 100 193 100
239 235 226 220 226 234 233 240 215 187 214 206 220 230 207 220 190 164 182 184 186 167 169 193 177 169 171 182 193 175 181 179 184 183 189 183 182 180 187 183 184 181 173 172 171 174 174 160 168 169 167 164 162 168 173 181 179 178 188 188 189 181 187 189 214 220 199 203 176 161 151 161 160 170 178 181 179 195 218 240 206 178 182 146 148 125 155 191 214 223 70 308 194 233 144 100 192
244 250 238 229 221 227 229 243 203 198 213 204 207 221 227 234 214 172 184 196 192 168 180 178 192 175 178 185 193 178 176 174 178 185 193 186 185 186 187 182 187 181 177 173 177 172 176 168 172 166 168 168 167 180 171 186 177 181 185 186 180 184 185 184 198 212 210 196 165 151 153 163 162 169 179 183 182 186 188 218 217 179 184 122 131 158 178 184 192 173 132 178 314 41 302 112 299
231 242 250 248 229 224 223 236 229 197 198 223 205 212 222 218 233 186 180 187 188 168 178 184 185 178 179 177 182 169 173 187 191 185 189 193 191 184 186 182 189 187 182 176 176 172 172 177 174 170 171 173 177 175 166 180 178 181 182 184 183 181 181 189 196 196 216 208 166 165 152 159 161 171 179 185 189 190 190 198 192 182 197 133 146 183 173 137 141 208 165 192 163 309 158 122 123
230 229 239 241 240 225 208 228 229 226 223 215 225 238 223 219 220 231 206 185 191 174 168 178 179 174 175 181 181 181 188 191 193 189 189 193 194 183 183 187 189 187 183 178 179 175 173 179 170 171 178 176 172 163 166 175 181 175 179 186 184 193 174 186 197 192 195 220 181 174 156 157 170 176 186 188 196 190 189 189 196 184 189 166 171 150 197 170 155 192 214 164 188 183 199 126 224
227 234 230 236 240 234 247 203 217 209 216 226 217 225 238 235 230 220 207 174 192 174 158 177 173 171 179 181 180 183 191 182 185 188 189 190 193 190 183 187 187 189 186 184 182 181 181 181 174 171 180 181 172 159 165 169 177 183 172 191 181 207 168 176 187 205 194 209 195 177 186 166 175 188 184 193 193 190 184 191 192 182 158 170 169 167 188 185 164 172 217 168 171 340 1 127 179
224 228 235 233 237 250 232 260 229 198 216 209 235 234 226 221 237 244 228 190 206 159 152 170 168 170 178 180 185 186 185 178 187 185 186 190 191 196 187 182 188 191 189 190 186 184 182 179 176 168 175 182 178 163 168 166 179 178 176 180 181 187 194 174 188 194 195 194 205 188 186 178 176 191 187 191 198 188 184 191 193 184 176 174 166 181 168 195 173 181 179 174 260 138 280 129 112
224 219 225 238 239 235 250 234 237 234 219 199 212 239 232 216 230 234 233 221 211 169 151 175 171 175 176 179 180 186 190 187 188 192 192 196 190 198 191 184 190 194 189 187 186 182 178 175 179 171 172 178 183 165 168 165 176 183 182 186 186 182 191 190 181 196 200 186 204 196 171 169 179 191 196 189 196 186 181 186 189 187 188 171 177 165 171 189 178 203 161 188 152 88 84 76 143
228 222 215 224 238 245 238 248 243 247 258 228 206 214 227 229 206 222 241 232 212 187 166 174 176 172 174 174 177 182 187 186 185 191 191 194 191 195 195 187 187 193 187 186 184 181 176 175 180 173 171 177 184 174 170 168 176 180 182 187 190 187 195 192 184 190 206 186 190 215 169 171 177 186 201 190 187 190 177 182 185 195 192 179 172 173 183 182 173 213 156 137 91 98 116 191 256
228 221 227 211 222 235 245 244 245 252 242 243 246 203 219 226 230 231 225 231 232 223 204 177 156 167 169 174 180 178 183 185 184 192 188 190 195 193 193 188 191 193 189 185 184 179 177 173 178 172 171 175 183 179 170 172 175 181 185 185 189 192 193 197 183 188 204 204 184 209 183 168 171 177 201 189 188 191 177 179 185 192 195 190 164 180 190 170 182 187 136 123 119 130 108 180 242
219 237 225 231 214 219 231 237 245 249 248 245 237 244 250 228 212 209 218 220 217 213 224 213 155 168 170 176 178 177 181 181 185 193 194 195 195 196 199 186 187 197 192 184 184 178 174 172 178 174 172 177 180 182 171 173 176 180 188 190 192 186 189 192 190 186 196 202 190 193 208 169 167 176 187 199 183 192 180 180 187 193 197 194 174 184 190 170 168 180 158 147 144 151 170 176 227
217 217 241 228 230 217 212 230 241 247 249 239 241 242 233 245 238 239 211 208 225 211 206 189 155 162 166 172 174 178 175 179 190 191 195 195 202 198 187 176 186 200 197 183 185 181 179 175 179 178 177 177 179 184 175 174 180 182 189 190 193 191 188 191 186 185 188 197 198 188 194 175 169 170 183 195 189 189 188 186 194 193 195 186 184 202 175 167 174 180 165 159 166 157 159 180 239
219 202 217 232 225 226 221 210 212 235 238 232 234 240 234 239 222 235 242 213 212 259 245 163 155 165 161 165 176 173 174 180 187 186 187 187 187 193 181 177 179 204 205 186 188 181 181 178 179 180 178 178 180 184 179 177 182 186 188 190 193 193 192 193 192 187 182 191 193 191 182 181 171 165 177 185 196 194 191 186 196 193 190 188 187 189 191 179 175 173 166 164 162 178 157 176 210
204 207 200 215 203 204 209 207 213 220 232 216 227 232 238 234 235 237 237 226 201 209 225 149 169 171 166 173 172 173 178 178 184 184 190 192 169 161 175 182 184 199 202 187 188 185 182 180 180 180 181 180 181 183 183 181 183 187 189 190 191 194 196 195 194 191 179 188 186 190 182 185 176 171 174 185 192 196 186 186 192 199 185 188 187 186 192 185 190 157 164 170 164 180 179 167 187
195 206 195 201 207 192 211 208 232 245 236 235 228 218 243 251 236 230 247 244 215 208 214 185 179 180 165 175 168 172 177 178 178 181 187 185 176 177 183 184 194 198 197 187 188 186 181 182 180 182 182 182 181 183 185 185 185 188 190 190 190 191 196 197 196 194 183 183 184 190 190 186 185 188 182 190 192 196 188 187 189 196 188 184 187 188 184 187 200 158 165 175 184 173 182 179 175
200 204 206 208 217 196 202 206 211 223 236 207 224 240 226 224 228 221 223 241 253 219 210 204 175 176 172 169 175 172 173 177 178 181 191 183 180 188 186 195 194 197 200 192 191 186 179 180 180 183 183 183 182 183 184 186 185 187 189 192 191 189 194 197 197 196 190 182 186 189 192 192 190 189 194 188 194 191 192 182 187 196 190 188 190 187 182 184 191 162 168 188 183 170 179 187 179
200 202 209 214 213 199 220 206 225 225 222 230 201 221 233 237 229 228 227 217 222 239 227 239 168 168 165 161 170 177 178 176 176 179 185 187 186 187 191 198 193 195 197 195 193 188 182 182 180 182 183 182 184 183 184 185 185 186 187 191 191 190 191 194 197 196 197 186 184 188 189 195 192 188 190 189 193 194 186 182 184 193 192 190 189 189 185 184 180 176 172 186 193 178 179 188 187
181 200 208 213 204 216 232 236 223 228 227 232 213 217 222 249 253 233 227 222 211 209 225 232 157 167 161 170 172 173 176 174 181 182 185 183 182 185 192 196 190 193 196 197 194 189 185 181 181 182 183 183 184 185 183 183 184 185 189 190 191 190 191 194 197 196 199 190 186 188 191 196 195 188 186 191 189 197 189 183 181 191 192 192 188 189 189 186 180 182 187 185 191 196 173 189 187
177 206 205 206 220 226 224 242 218 224 231 219 217 227 216 205 226 220 221 224 226 198 204 224 207 166 163 169 172 176 178 174 175 182 181 178 186 195 189 185 192 195 198 196 192 190 184 182 182 181 182 184 185 184 184 182 183 186 186 189 192 193 194 196 197 195 195 193 191 191 195 193 200 196 187 190 191 189 197 187 180 185 190 192 189 190 191 189 182 187 192 191 187 198 187 180 188
223 204 182 202 187 207 208 244 234 221 221 239 215 222 234 201 211 203 212 216 212 225 192 211 224 172 163 160 170 173 182 172 178 186 181 174 175 180 192 196 202 201 198 196 189 188 186 185 186 184 184 185 183 184 185 183 184 185 187 188 191 193 194 195 197 194 192 196 196 194 197 197 194 197 198 191 182 186 189 197 187 182 184 190 190 191 189 192 185 189 194 190 190 195 198 180 184
235 223 196 205 219 206 204 210 251 244 232 219 230 235 240 219 210 198 205 204 199 220 211 196 211 144 160 157 170 179 182 174 180 179 174 180 184 190 194 197 198 199 196 196 192 192 191 188 185 187 186 184 183 184 182 183 185 185 186 188 191 192 193 194 193 191 192 197 197 196 198 200 196 195 198 198 189 186 185 193 196 191 188 191 192 193 190 192 189 193 195 192 194 192 203 191 185
205 222 211 186 221 196 221 202 221 225 243 221 223 220 226 248 223 186 192 193 186 204 228 196 198 162 167 165 174 177 189 171 175 174 176 182 185 189 192 194 196 194 192 193 193 193 193 189 188 187 184 185 186 186 183 185 185 189 185 186 189 191 193 193 194 194 194 195 196 198 196 201 194 198 195 197 200 193 185 189 198 200 199 192 192 194 191 190 195 194 202 198 194 190 197 202 189
203 207 213 198 192 199 198 215 199 223 232 245 238 240 252 206 205 181 183 195 186 184 218 213 205 186 173 169 179 179 186 172 171 169 175 182 185 187 189 194 196 194 191 194 195 193 191 192 190 188 187 187 187 186 186 184 186 187 187 187 190 191 192 192 195 194 197 194 194 197 198 194 197 198 197 197 196 200 193 187 195 196 201 196 188 192 191 190 194 197 202 204 202 191 195 202 199